Location: Kawakawa
(35.3830°S, 174.0670°E)
Time: 18:00:32
(UTC+12:00)

PAYLOAD B - Pass Details

Date: 15 August 2020
Orbit: 849 x 871 km, 99.1° (Epoch: 25 September)

Event Time Altitude Azimuth Distance (km) Brightness Sun altitude
Rises 18:15:21 0° 167° (SSE) 3,493 7.1 -5.4°
Reaches altitude 10° 18:17:46 10° 167° (SSE) 2,547 6.4 -5.9°
Maximum altitude 18:23:27 89° 250° (WSW) 882 4.4 -7.0°
Drops below altitude 10° 18:29:03 10° 344° (NNW) 2,505 7.0 -8.2°
Sets 18:31:24 0° 344° (NNW) 3,432 7.8 -8.6°
